FW0428 Weather Reports


Display with metric or nautical units.
time (UTC)temp
F
wind
direction
speed
MPH
gust
MPH
rain 1hr
in
rain 24hr
in
rain mn
in
humidity
%
barometer
mb
20200401120107 47 331 0.0 0.0 0.00 0.01 0.00 96 1014.9
20200401110104 47 331 0.0 0.0 0.00 0.01 0.00 96 1014.5
20200401101702 47 331 0.0 0.0 0.00 0.01 0.00 96 1014.9
20200401100050 47 331 0.0 0.0 0.00 0.01 0.00 96 1014.7
20200401090026 48 331 0.0 0.0 0.00 0.01 0.00 96 1015.1
20200401064518 50 331 0.0 0.0 0.00 0.01 0.00 95 1016.1
20200401063112 50 331 0.0 0.0 0.00 0.01 0.00 95 1016.2
20200401061614 50 331 0.0 0.0 0.00 0.01 0.00 95 1016.1
20200401060009 50 331 0.0 0.0 0.00 0.01 0.00 94 1016.4
20200401054621 50 331 0.0 0.0 0.00 0.01 0.00 94 1016.4
20200401051620 51 331 0.0 0.0 0.00 0.01 0.00 93 1016.7
20200401050222 52 331 0.0 0.0 0.00 0.01 0.01 93 1016.7
20200401041629 52 331 0.0 0.0 0.00 0.01 0.01 92 1016.7
20200401040130 52 331 0.0 0.0 0.00 0.11 0.01 91 1016.6
20200401031523 54 331 0.0 0.0 0.00 0.11 0.01 89 1016.4
20200401020154 57 331 0.0 0.0 0.00 0.22 0.01 81 1015.9
20200401003056 63 331 0.0 1.0 0.00 0.34 0.01 64 1015.4
20200331230105 64 348 0.0 3.0 0.00 0.53 0.01 63 1015.2
20200331221627 63 50 0.0 5.0 0.00 0.53 0.01 64 1015.1
20200331200034 62 27 1.0 4.0 0.00 0.59 0.01 68 1015.6
20200331191656 60 355 1.0 7.0 0.00 0.59 0.01 72 1016.3
20200331181551 60 15 1.0 7.0 0.00 0.59 0.01 73 1016.5
20200331180030 59 335 1.0 9.0 0.00 0.62 0.01 76 1016.6